EW3359 Weather Reports


Display with metric or nautical units.
time (UTC)temp
F
wind
direction
speed
MPH
gust
MPH
rain 1hr
in
rain 24hr
in
rain mn
in
humidity
%
barometer
mb
20260904163005 87 198 0.0 5.0 0.00 0.00 0.00 34 1012.4
20260904161505 87 199 0.0 5.0 0.00 0.00 0.00 34 1012.4
20260904160005 87 178 0.0 5.0 0.00 0.00 0.00 34 1012.5
20260904154504 88 179 0.0 4.0 0.00 0.00 0.00 34 1012.5
20260904153009 88 167 0.0 7.0 0.00 0.00 0.00 34 1012.5
20260904151502 88 207 0.0 5.0 0.00 0.00 0.00 35 1012.8
20260904150004 88 199 0.0 4.0 0.00 0.00 0.00 33 1012.8
20260904144600 89 214 0.0 6.0 0.00 0.00 0.00 34 1013.0
20260904143100 89 187 1.0 7.0 0.00 0.00 0.00 33 1013.0
20260904141609 88 168 1.0 6.0 0.00 0.00 0.00 33 1013.1
20260904140057 88 178 4.0 12.0 0.00 0.00 0.00 32 1013.2
20260904134559 88 191 2.0 8.0 0.00 0.00 0.00 32 1013.4
20260904133056 89 192 1.0 8.0 0.00 0.00 0.00 31 1013.4
20260904131557 89 244 1.0 11.0 0.00 0.00 0.00 31 1013.4
20260904130053 89 194 1.0 6.0 0.00 0.00 0.00 31 1013.6
20260904124550 90 169 1.0 6.0 0.00 0.00 0.00 31 1013.8
20260904123047 89 196 1.0 6.0 0.00 0.00 0.00 31 1014.0
20260904121544 88 165 1.0 4.0 0.00 0.00 0.00 31 1014.4
20260904120041 87 182 0.0 5.0 0.00 0.00 0.00 31 1014.6
20260904114541 86 184 0.0 4.0 0.00 0.00 0.00 32 1015.0
20260904113036 85 181 0.0 4.0 0.00 0.00 0.00 33 1015.4
20260904111532 84 169 0.0 4.0 0.00 0.00 0.00 35 1015.8
20260904110030 83 169 0.0 2.0 0.00 0.00 0.00 38 1016.0
20260904104526 83 169 0.0 5.0 0.00 0.00 0.00 38 1016.2
20260904103022 81 161 1.0 3.0 0.00 0.00 0.00 36 1016.7
20260904101517 80 162 0.0 5.0 0.00 0.00 0.00 38 1017.0
20260904100014 79 162 0.0 2.0 0.00 0.00 0.00 41 1017.3
20260904094519 78 162 0.0 8.0 0.00 0.00 0.00 44 1017.6
20260904093007 77 150 0.0 3.0 0.00 0.00 0.00 46 1018.1
20260904091502 77 161 0.0 3.0 0.00 0.00 0.00 47 1018.4
20260904090058 76 170 0.0 4.0 0.00 0.00 0.00 46 1018.6
20260904084555 75 155 0.0 6.0 0.00 0.00 0.00 49 1018.6
20260904083050 73 140 0.0 4.0 0.00 0.00 0.00 49 1018.8
20260904081545 73 134 0.0 3.0 0.00 0.00 0.00 52 1019.1
20260904080042 71 159 0.0 3.0 0.00 0.00 0.00 53 1019.2
20260904074537 70 153 0.0 5.0 0.00 0.00 0.00 54 1019.3
20260904073033 69 136 0.0 0.0 0.00 0.00 0.00 55 1019.5
20260904071529 68 136 0.0 3.0 0.00 0.00 0.00 58 1019.8
20260904070025 67 133 0.0 2.0 0.00 0.00 0.00 60 1020.1
20260904064520 66 58 0.0 3.0 0.00 0.00 0.00 59 1020.3
20260904063023 65 94 0.0 0.0 0.00 0.00 0.00 61 1020.3
20260904061514 63 122 0.0 0.0 0.00 0.00 0.00 65 1020.4
20260904060011 64 122 0.0 3.0 0.00 0.00 0.00 61 1020.4
20260904054504 63 89 0.0 4.0 0.00 0.00 0.00 63 1020.4
20260904053100 62 103 0.0 0.0 0.00 0.00 0.00 63 1020.5
20260904051606 62 103 0.0 3.0 0.00 0.00 0.00 62 1020.4
20260904050059 62 94 0.0 0.0 0.00 0.00 0.00 63 1020.4
20260904044556 62 16 0.0 1.0 0.00 0.00 0.00 63 1020.4
20260904043056 62 355 0.0 2.0 0.00 0.00 0.00 63 1020.4
20260904041553 61 350 0.0 4.0 0.00 0.00 0.00 66 1020.3
20260904034553 62 5 0.0 0.0 0.00 0.00 0.00 63 1020.4
20260904033049 61 5 0.0 0.0 0.00 0.00 0.00 64 1020.4
20260904031548 61 5 0.0 0.0 0.00 0.00 0.00 64 1020.3
20260904030046 62 5 0.0 0.0 0.00 0.00 0.00 63 1020.5
20260904024549 63 5 0.0 0.0 0.00 0.00 0.00 62 1020.5
20260904023055 63 5 0.0 0.0 0.00 0.00 0.00 61 1020.6
20260904021543 64 5 0.0 0.0 0.00 0.00 0.00 59 1020.6
20260904020042 64 5 0.0 0.0 0.00 0.00 0.00 59 1020.6
20260904014556 64 5 0.0 0.0 0.00 0.00 0.00 58 1020.5
20260904013045 63 5 0.0 0.0 0.00 0.00 0.00 60 1020.6
20260904011540 64 5 0.0 0.0 0.00 0.00 0.00 58 1020.5
20260904010042 65 5 0.0 0.0 0.00 0.00 0.00 56 1020.5
20260904004535 65 5 0.0 0.0 0.00 0.00 0.00 55 1020.6
20260904003036 64 5 0.0 0.0 0.00 0.00 0.00 57 1020.7
20260904001535 65 5 0.0 0.0 0.00 0.00 0.00 56 1020.6
20260904000032 65 5 0.0 0.0 0.00 0.00 0.00 56 1020.8
20260903234530 65 5 0.0 0.0 0.00 0.00 0.00 55 1020.9
20260903233030 67 336 0.0 0.0 0.00 0.00 0.00 52 1020.8
20260903231533 66 336 0.0 3.0 0.00 0.00 0.00 54 1020.6
20260903230032 66 355 0.0 0.0 0.00 0.00 0.00 55 1020.6
20260903224547 65 355 0.0 0.0 0.00 0.00 0.00 56 1020.6
20260903223027 66 355 0.0 0.0 0.00 0.00 0.00 55 1020.5
20260903221526 66 360 0.0 0.0 0.00 0.00 0.00 55 1020.4
20260903220022 67 355 0.0 0.0 0.00 0.00 0.00 53 1020.4
20260903214534 67 355 0.0 0.0 0.00 0.00 0.00 54 1020.3
20260903213023 69 355 0.0 0.0 0.00 0.00 0.00 51 1020.1
20260903211519 68 355 0.0 0.0 0.00 0.00 0.00 52 1020.0
20260903210018 70 355 0.0 0.0 0.00 0.00 0.00 48 1019.9
20260903204517 70 355 0.0 0.0 0.00 0.00 0.00 49 1019.8
20260903203017 70 355 0.0 0.0 0.00 0.00 0.00 47 1019.7
20260903201516 71 355 0.0 1.0 0.00 0.00 0.00 47 1019.6
20260903200016 73 343 0.0 0.0 0.00 0.00 0.00 44 1019.4
20260903194618 73 300 0.0 8.0 0.00 0.00 0.00 41 1019.2
20260903193015 73 307 0.0 3.0 0.00 0.00 0.00 42 1019.0
20260903191515 73 333 0.0 4.0 0.00 0.00 0.00 44 1018.9
20260903190013 73 279 0.0 5.0 0.00 0.00 0.00 43 1018.7
20260903184513 74 360 0.0 3.0 0.00 0.00 0.00 43 1018.4
20260903183012 74 335 0.0 0.0 0.00 0.00 0.00 44 1018.2
20260903181512 74 234 0.0 0.0 0.00 0.00 0.00 43 1017.9
20260903180012 75 227 0.0 4.0 0.00 0.00 0.00 40 1017.8
20260903174511 76 232 0.0 2.0 0.00 0.00 0.00 41 1017.7
20260903173010 77 267 0.0 5.0 0.00 0.00 0.00 39 1017.6
20260903171510 78 186 1.0 10.0 0.00 0.00 0.00 38 1017.6
20260903170010 79 190 1.0 7.0 0.00 0.00 0.00 37 1017.5
20260903164509 79 194 0.0 7.0 0.00 0.00 0.00 36 1017.3